Location: Cactus School
(34.5700°N, 118.0931°W)
Time: 00:43:57
(UTC-08:00)

A-11 Canister half - Pass Details

Date: 22 November 2019
Orbit: 1515 x 1685 km, 47.2° (Epoch: 06 December)

Event Time Altitude Azimuth Distance (km) Brightness Sun altitude
Rises 20:55:02 0° 298° (WNW) 4,933 12.2 -51.3°
Reaches altitude 10° 20:58:25 10° 305° (NW) 3,950 11.5 -52.0°
Enters shadow 21:02:48 27° 320° (NW) 2,810 10.5 -52.9°
